Location: Arrodets-la-Barthe
(43.0306°N, 0.2829°E)
Time: 16:52:03
(UTC+00:00)

Lacrosse 4 Rocket - Pass Details

Date: 01 June 2022
Orbit: 541 x 611 km, 68.0° (Epoch: 30 June)

Event Time Altitude Azimuth Distance (km) Brightness Sun altitude
Exits shadow 03:27:03 11° 239° (WSW) 1,804 3.3 -8.9°
Maximum altitude 03:30:43 36° 305° (NW) 917 2.3 -8.4°
Drops below altitude 10° 03:34:36 10° 13° (NNE) 1,864 4.9 -7.9°
Sets 03:36:56 0° 22° (NNE) 2,753 6.1 -7.6°
